Weather History for Frederick, OK

Change the Weather History Date:

Tuesday, January 1, 2013

  Actual Average (KLTS) Record (KLTS)
Temperature  
Mean Temperature 30 °F -  
Max Temperature 34 °F 50 °F 73 °F (1997)
Min Temperature 25 °F 26 °F 14 °F (2011)
Degree Days  
Heating Degree Days 35    
Moisture  
Dew Point 24 °F    
Average Humidity 80    
Maximum Humidity 88    
Minimum Humidity 70    
Precipitation  
Precipitation 0.00 in - - ()
Sea Level Pressure  
Sea Level Pressure 30.23 in    
Wind  
Wind Speed 12 mph (NNW)    
Max Wind Speed 20 mph    
Max Gust Speed 24 mph    
Visibility 10 miles    
Events      
Averages and records for this station are not official NWS values.
T = Trace of Precipitation, MM = Missing Value Source: NWS Daily Summary

Daily Weather History Graph

Daily Weather History Graph

Search for Another Location

Airport:

Trip Planner

Search our weather history database for the weather conditions in past years. The results will help you decide how hot, cold, wet, or windy it might be!

Date:

Astronomy

Jan. 01, 2013 Rise Set
Actual Time 7:42 AM CST 5:37 PM CST
Civil Twilight 7:14 AM CST 6:04 PM CST
Nautical Twilight 6:43 AM CST 6:36 PM CST
Astronomical Twilight 6:12 AM CST 7:06 PM CST
Moon 9:57 PM CST (1/1) 10:06 AM CST (1/1)
Length of Visible Light 10h 50m
Length of Day
9h 54m
Waning Gibbous, 83% of the Moon is Illuminated
Jan 1
Waning Gibbous
Jan 4
Last Quarter
Jan 11
New
Jan 18
First Quarter
Jan 26
Full

Hourly Weather History & Observations

Time (CST) Temp. Windchill Dew Point Humidity Pressure Visibility Wind Dir Wind Speed Gust Speed Precip Events Conditions
12:53 AM 32.0 °F 22.1 °F 28.0 °F 85% 30.08 in 10.0 mi NNW 13.8 mph - N/A   Overcast
1:00 AM 32.0 °F 22.5 °F 28.4 °F 87% 30.08 in 10.0 mi NNW 12.7 mph 19.6 mph N/A   Overcast
1:53 AM 32.0 °F 22.1 °F 28.0 °F 85% 30.12 in 10.0 mi NNW 13.8 mph - N/A   Overcast
2:53 AM 32.0 °F 22.1 °F 27.0 °F 82% 30.13 in 10.0 mi North 13.8 mph - N/A   Overcast
3:53 AM 30.9 °F 20.7 °F 26.1 °F 82% 30.16 in 10.0 mi NNW 13.8 mph - N/A   Overcast
4:23 AM 30.2 °F 20.2 °F 26.6 °F 86% 30.14 in 10.0 mi NNW 12.7 mph - N/A   Overcast
4:53 AM 30.9 °F 21.2 °F 25.0 °F 79% 30.17 in 10.0 mi NW 12.7 mph - N/A   Overcast
5:17 AM 30.2 °F 19.3 °F 24.8 °F 80% 30.13 in 10.0 mi NNW 15.0 mph - N/A   Overcast
5:53 AM 30.0 °F 17.5 °F 24.1 °F 79% 30.15 in 10.0 mi NNW 19.6 mph 24.2 mph N/A   Overcast
6:53 AM 30.0 °F 20.5 °F 24.1 °F 79% 30.19 in 10.0 mi NNW 11.5 mph - N/A   Mostly Cloudy
7:53 AM 28.9 °F 18.2 °F 21.9 °F 75% 30.22 in 10.0 mi NW 13.8 mph - N/A   Overcast
8:53 AM 28.9 °F 17.3 °F 21.9 °F 75% 30.25 in 10.0 mi NNW 16.1 mph - N/A   Overcast
9:53 AM 28.9 °F 17.7 °F 21.9 °F 75% 30.27 in 10.0 mi NNW 15.0 mph - N/A   Overcast
10:53 AM 28.9 °F 19.2 °F 21.9 °F 75% 30.29 in 10.0 mi North 11.5 mph - N/A   Overcast
11:53 AM 30.0 °F 20.5 °F 23.0 °F 75% 30.30 in 10.0 mi NNW 11.5 mph - N/A   Overcast
12:53 PM 30.9 °F 19.8 °F 24.1 °F 76% 30.26 in 10.0 mi NNW 16.1 mph - N/A   Overcast
1:53 PM 32.0 °F 23.0 °F 24.1 °F 73% 30.25 in 10.0 mi NNW 11.5 mph - N/A   Overcast
2:53 PM 33.1 °F 23.9 °F 25.0 °F 72% 30.25 in 10.0 mi NNW 12.7 mph - N/A   Overcast
3:53 PM 34.0 °F 24.2 °F 25.0 °F 70% 30.25 in 10.0 mi North 15.0 mph - N/A   Mostly Cloudy
4:00 PM 33.8 °F 24.3 °F 24.8 °F 70% 30.23 in 10.0 mi North 13.8 mph - N/A   Overcast
4:53 PM 33.1 °F 23.9 °F 25.0 °F 72% 30.26 in 10.0 mi North 12.7 mph - N/A   Mostly Cloudy
5:53 PM 30.0 °F 23.2 °F 24.1 °F 79% 30.27 in 9.0 mi North 6.9 mph - N/A   Clear
6:53 PM 28.9 °F 23.9 °F 24.1 °F 82% 30.29 in 8.0 mi North 4.6 mph - N/A   Clear
7:53 PM 27.0 °F 19.5 °F 23.0 °F 85% 30.30 in 8.0 mi North 6.9 mph - N/A   Clear
8:53 PM 27.0 °F 19.5 °F 23.0 °F 85% 30.30 in 8.0 mi North 6.9 mph - N/A   Partly Cloudy
9:53 PM 27.0 °F 18.7 °F 23.0 °F 85% 30.31 in 9.0 mi NNE 8.1 mph - N/A   Clear
10:13 PM 28.4 °F 20.4 °F 23.0 °F 80% 30.27 in 9.0 mi NNE 8.1 mph - N/A   Mostly Cloudy
10:39 PM 26.6 °F 20.0 °F 23.0 °F 86% 30.28 in 9.0 mi North 5.8 mph - N/A   Scattered Clouds
10:53 PM 26.1 °F 21.9 °F 21.9 °F 84% 30.31 in 8.0 mi NW 3.5 mph - N/A   Clear
11:53 PM 25.0 °F 19.3 °F 21.9 °F 88% 30.31 in 8.0 mi NNW 4.6 mph - N/A   Clear